Change the Weather History Date:

Thursday, April 25, 2013

  Actual Average Record
Temperature  
Mean Temperature 50 °F 44 °F  
Max Temperature 63 °F 56 °F 87 °F (1910)
Min Temperature 37 °F 31 °F 0 °F (1935)
Degree Days  
Heating Degree Days 15 21  
Month to date heating degree days 744 618  
Since 1 July heating degree days 7538 7716  
Cooling Degree Days 0 0  
Month to date cooling degree days 0 0  
Year to date cooling degree days 0 0  
Growing Degree Days 1 (Base 50)    
Moisture  
Dew Point 25 °F    
Average Humidity 41    
Maximum Humidity 59    
Minimum Humidity 22    
Precipitation  
Precipitation 0.00 in 0.03 in 0.50 in (1930)
Month to date precipitation 0.68 0.61  
Year to date precipitation 1.98 1.52  
Snow  
Snow 0.00 in - - ()
Snow Depth 0.00 in    
Sea Level Pressure  
Sea Level Pressure 29.81 in    
Wind  
Wind Speed 18 mph (West)    
Max Wind Speed 29 mph    
Max Gust Speed 35 mph    
Visibility 10 miles    
Events      
T = Trace of Precipitation, MM = Missing Value Source: NWS Daily Summary

Daily Weather History Graph

Daily Weather History Graph

Search for Another Location

Airport or City:

Trip Planner

Search our weather history database for the weather conditions in past years. The results will help you decide how hot, cold, wet, or windy it might be!

Date:

Astronomy

Apr. 25, 2013 Rise Set
Actual Time 6:19 AM MDT 8:36 PM MDT
Civil Twilight 5:45 AM MDT 9:10 PM MDT
Nautical Twilight 5:02 AM MDT 9:53 PM MDT
Astronomical Twilight 4:13 AM MDT 10:43 PM MDT
Moon 8:56 PM MDT (4/25) 6:05 AM MDT (4/25)
Length of Visible Light 15h 25m
Length of Day
14h 16m
Full, 100% of the Moon is Illuminated
Apr 25
Full
Apr 25
Full
May 2
Last Quarter
May 9
New
May 17
First Quarter

Hourly Weather History & Observations

Time (MDT) Temp. Windchill Dew Point Humidity Pressure Visibility Wind Dir Wind Speed Gust Speed Precip Events Conditions
12:56 AM 45.0 °F 37.9 °F 25.0 °F 46% 29.83 in 10.0 mi West 16.1 mph - N/A   Clear
1:56 AM 44.1 °F 37.4 °F 26.1 °F 49% 29.82 in 10.0 mi West 13.8 mph - N/A   Clear
2:56 AM 43.0 °F 35.4 °F 26.1 °F 51% 29.81 in 10.0 mi West 16.1 mph - N/A   Clear
3:56 AM 42.1 °F 34.2 °F 25.0 °F 51% 29.80 in 10.0 mi West 16.1 mph - N/A   Clear
4:56 AM 39.9 °F 31.8 °F 25.0 °F 55% 29.80 in 10.0 mi WSW 15.0 mph - N/A   Clear
5:56 AM 39.0 °F 30.6 °F 25.0 °F 57% 29.80 in 10.0 mi WSW 15.0 mph - N/A   Clear
6:56 AM 39.9 °F 30.5 °F 26.1 °F 58% 29.81 in 10.0 mi West 19.6 mph - N/A   Clear
7:56 AM 45.0 °F 37.1 °F 27.0 °F 49% 29.79 in 10.0 mi WSW 19.6 mph - N/A   Clear
8:56 AM 50.0 °F - 26.1 °F 39% 29.79 in 10.0 mi West 25.3 mph 31.1 mph N/A   Mostly Cloudy
9:56 AM 54.0 °F - 25.0 °F 33% 29.77 in 10.0 mi WSW 25.3 mph 32.2 mph N/A   Clear
10:56 AM 57.9 °F - 25.0 °F 28% 29.75 in 10.0 mi WSW 26.5 mph 33.4 mph N/A   Partly Cloudy
11:56 AM 57.9 °F - 19.9 °F 23% 29.75 in 10.0 mi West 15.0 mph 27.6 mph N/A   Mostly Cloudy
12:56 PM 60.1 °F - 21.9 °F 23% 29.75 in 10.0 mi WNW 20.7 mph 26.5 mph N/A   Partly Cloudy
1:56 PM 61.0 °F - 21.9 °F 22% 29.75 in 10.0 mi West 16.1 mph 28.8 mph N/A   Clear
2:56 PM 63.0 °F - 24.1 °F 23% 29.75 in 10.0 mi West 21.9 mph 32.2 mph N/A   Partly Cloudy
3:56 PM 57.9 °F - 21.9 °F 25% 29.78 in 10.0 mi WNW 21.9 mph 29.9 mph N/A   Mostly Cloudy
4:56 PM 60.1 °F - 21.9 °F 23% 29.79 in 10.0 mi WNW 20.7 mph - N/A   Partly Cloudy
5:56 PM 61.0 °F - 23.0 °F 23% 29.80 in 10.0 mi West 20.7 mph 32.2 mph N/A   Partly Cloudy
6:56 PM 60.1 °F - 23.0 °F 24% 29.82 in 10.0 mi West 23.0 mph 28.8 mph N/A   Mostly Cloudy
7:56 PM 57.9 °F - 24.1 °F 27% 29.84 in 10.0 mi WNW 17.3 mph - N/A   Scattered Clouds
8:56 PM 50.0 °F - 26.1 °F 39% 29.88 in 10.0 mi West 10.4 mph - N/A   Scattered Clouds
9:56 PM 45.0 °F 39.7 °F 27.0 °F 49% 29.91 in 10.0 mi West 10.4 mph - N/A   Clear
10:56 PM 48.9 °F - 28.0 °F 44% 29.92 in 10.0 mi West 16.1 mph - N/A   Clear
11:56 PM 43.0 °F 36.4 °F 28.9 °F 58% 29.93 in 10.0 mi WNW 12.7 mph - N/A   Clear